Probability
20 19 18 16 15 13 12 9 7 6 7 10 11 9 8 7 6 6 6 7 8 9 10 10 9 9 9 10 9 7 5 4 3 3 3 2 2 2 2 2 2 1 0
16 17 17 16 14 13 11 9 7 6 7 11 12 9 7 7 6 6 6 7 7 9 9 9 9 8 9 9 8 7 5 4 3 3 2 1 1 1 1 1 1 0 0
14 15 15 14 13 12 11 10 8 9 11 13 12 9 7 6 6 7 7 7 7 7 8 8 7 7 8 8 7 6 5 4 3 2 1 1 1 0 0 0 0 0 0
15 15 15 14 11 11 11 10 10 12 15 16 13 9 7 7 7 7 8 8 7 6 5 4 5 6 7 6 5 4 4 3 3 3 2 2 2 1 0 0 0 0 0
16 16 16 15 13 11 11 10 11 13 17 18 13 9 7 6 6 6 7 6 6 4 3 1 2 4 5 4 4 3 3 3 3 3 3 3 3 2 1 0 0 0 0
17 16 16 16 15 13 11 11 12 14 16 17 13 8 5 4 4 3 3 3 3 3 2 1 1 2 3 3 3 3 3 3 3 2 3 3 3 2 1 0 0 0 0
14 15 15 16 16 14 12 12 12 14 15 15 13 9 6 4 3 1 0 1 2 4 4 3 2 2 3 3 3 3 2 1 2 3 3 3 3 1 0 0 0 0 0
11 12 14 14 14 13 12 11 11 12 13 14 14 12 9 6 3 1 0 1 3 4 5 5 3 3 3 3 3 3 2 1 1 2 3 3 3 1 1 1 1 0 0
9 10 11 11 11 11 11 11 10 11 12 13 14 12 9 6 3 0 1 2 3 4 6 6 4 2 1 2 3 4 3 1 1 1 2 2 2 2 2 2 2 1 0
8 9 9 9 9 9 9 9 10 11 11 12 12 10 7 5 2 1 1 2 3 4 5 5 3 1 0 1 3 4 4 3 2 1 1 1 1 1 1 2 2 1 0
6 7 8 9 9 9 8 7 8 10 11 10 9 7 4 3 2 1 0 1 1 2 4 5 4 2 0 0 2 4 4 3 2 2 1 0 0 0 0 1 1 0 0
3 4 6 8 9 9 8 7 7 7 8 8 6 4 3 3 1 0 0 0 0 1 2 4 4 2 0 0 0 1 1 1 1 2 2 0 0 0 0 0 0 0 0
1 2 4 7 8 9 9 8 7 6 6 6 5 4 3 3 2 0 0 0 0 0 0 1 1 1 0 0 0 0 0 0 1 2 1 0 0 0 1 1 1 0 0
1 1 3 5 6 7 8 8 7 6 5 6 6 5 4 3 3 1 0 0 0 0 0 0 0 0 0 0 0 0 0 0 1 1 0 0 0 1 2 2 2 1 1
2 2 2 2 3 4 5 5 6 5 5 5 5 4 3 3 3 2 0 0 0 0 0 0 0 0 0 0 0 0 0 0 0 0 0 1 1 1 3 3 3 3 2
3 2 1 1 2 3 3 3 4 3 3 3 3 1 1 1 1 1 0 0 0 0 0 0 0 0 0 0 0 0 0 1 1 0 1 2 2 3 3 3 3 3 3
4 3 1 0 1 3 3 3 3 2 1 1 1 0 0 0 0 0 0 0 0 0 0 0 1 0 0 0 0 0 1 2 2 2 2 3 3 3 3 3 3 3 3
4 3 2 1 1 2 3 3 3 3 2 1 0 0 0 0 0 0 0 0 0 0 0 0 0 0 0 0 0 0 1 3 3 3 3 3 3 3 3 3 3 3 2
3 3 2 1 1 2 3 3 3 3 2 1 0 0 0 0 0 0 0 0 0 0 0 0 0 0 0 0 0 0 1 2 3 3 3 3 3 3 3 3 3 2 2
2 1 1 0 0 1 3 3 4 3 2 0 0 0 0 0 0 0 0 0 0 0 0 0 0 0 0 0 0 0 1 1 3 3 3 3 3 3 3 3 3 3 2
1 0 0 0 0 1 2 3 5 5 3 1 1 0 0 0 0 0 0 0 1 1 1 1 1 0 0 0 0 0 0 1 2 3 3 3 3 3 3 3 3 3 3
0 0 0 0 0 0 1 2 4 5 4 3 2 1 0 0 0 0 0 0 1 2 2 2 2 1 0 0 0 0 0 0 1 2 3 3 3 3 3 3 3 3 2
0 0 0 0 0 0 0 1 3 4 4 3 2 1 0 0 0 0 1 1 1 3 3 3 3 2 1 0 0 0 0 0 0 1 1 2 2 2 2 2 2 2 1
0 0 0 0 0 0 0 1 2 3 3 2 2 1 0 0 0 1 2 2 3 3 3 3 3 3 2 1 0 0 0 0 0 0 0 1 1 1 1 1 1 1 0
1 1 0 0 0 0 0 1 1 1 1 1 1 0 0 0 0 1 2 3 3 3 3 3 3 3 2 1 0 0 0 0 0 0 0 0 0 0 0 0 0 0 0
2 2 1 0 0 0 0 0 1 0 0 0 0 0 0 0 0 0 1 3 3 3 3 3 3 3 1 0 0 0 0 0 0 0 0 0 0 0 0 0 0 0 0
Wind_Speed
3 3 3 3 2 2 3 3 3 3 3 3 3 3 3 3 3 3 3 2 2 2 2 1 2 1 1 1 1 1 1 2 3 2 1 1 1 1 1 2 2 3 4
3 3 3 2 2 2 2 3 3 3 3 4 4 4 4 4 3 4 4 3 3 3 2 2 2 2 1 1 1 1 1 2 2 2 2 1 2 2 2 2 2 2 3
3 3 2 2 2 2 3 3 3 3 3 3 4 4 4 4 4 4 4 4 4 4 3 3 3 2 2 2 2 2 1 1 2 2 2 1 1 1 1 2 2 2 3
3 3 3 2 3 3 3 3 3 3 3 3 4 4 4 4 4 3 3 3 3 3 3 4 4 4 4 3 2 2 2 1 1 1 1 1 1 1 0 1 2 2 2
2 3 3 3 2 2 2 2 3 3 3 3 3 3 3 3 4 4 4 4 3 3 3 3 3 4 5 4 3 3 2 2 1 2 1 0 1 0 1 1 1 2 2
2 2 2 2 2 2 2 2 2 2 3 3 3 4 4 3 4 5 4 3 3 3 3 3 3 3 4 4 4 4 5 4 3 2 2 2 3 2 1 1 1 1 3
2 2 2 3 3 3 3 2 2 2 3 4 4 4 4 5 6 6 6 4 4 4 4 3 3 3 3 2 3 4 4 5 5 4 4 4 4 4 3 2 2 3 3
1 1 2 2 2 2 2 3 3 2 3 3 4 4 4 5 6 7 6 4 4 4 4 4 4 3 3 3 3 2 3 3 4 4 4 5 4 4 4 4 4 2 3
1 1 2 2 2 2 2 3 3 2 3 3 3 4 4 5 6 7 6 3 3 4 4 4 4 4 5 5 3 3 2 3 4 4 5 5 5 6 4 2 1 1 2
2 2 2 3 3 3 4 4 3 3 3 3 3 3 3 4 5 6 6 3 3 3 2 2 4 5 5 6 5 4 4 5 3 2 3 3 4 5 6 5 4 3 2
2 2 2 3 3 4 3 3 2 2 2 2 3 3 3 4 4 5 6 3 3 3 3 2 3 5 6 7 6 5 7 5 3 3 3 2 2 2 3 4 4 5 4
1 2 2 3 3 2 2 3 2 2 2 2 2 2 2 3 3 4 6 6 4 3 3 3 4 6 6 7 6 6 7 5 2 2 2 3 3 3 3 3 4 5 5
1 2 3 3 3 2 2 3 2 2 2 3 2 2 2 2 2 4 5 6 6 3 3 5 5 6 5 5 7 7 5 3 3 3 4 4 3 3 3 2 2 2 3
2 3 3 2 3 2 2 2 2 2 2 3 3 3 2 2 2 2 2 2 4 3 2 3 4 4 3 4 4 4 3 3 4 4 3 3 2 2 2 2 2 1 2
2 2 2 2 2 2 2 2 3 3 4 4 3 3 4 4 5 6 4 3 3 3 2 0 0 1 2 2 2 2 2 2 3 3 3 2 2 2 2 2 2 1 2
2 2 2 2 2 2 2 2 3 3 4 4 5 4 4 5 5 6 6 5 4 5 3 2 2 2 3 3 2 2 2 2 3 3 3 3 3 3 3 2 2 2 3
3 3 2 2 2 2 2 2 2 3 3 3 4 5 5 4 4 4 4 3 4 6 3 2 3 3 3 2 2 2 3 3 2 3 3 3 3 3 3 3 2 2 3
3 3 3 3 2 3 3 2 2 2 2 2 3 3 4 4 4 3 3 3 1 2 2 3 3 3 3 3 2 2 2 2 2 2 3 3 3 3 3 3 3 3 3
3 3 3 2 2 2 2 2 2 2 2 1 1 2 2 1 1 1 4 2 3 2 2 2 3 3 2 2 2 2 2 2 2 2 2 3 3 3 3 3 3 4 3
3 4 3 2 2 2 2 2 2 2 1 1 1 2 0 1 1 1 1 2 2 2 2 2 2 2 2 2 2 2 1 1 2 2 2 2 3 3 3 3 3 3 3
3 3 3 2 2 2 2 2 2 2 2 2 2 2 2 3 2 2 2 2 2 2 2 2 2 1 1 1 1 1 1 1 1 1 1 1 2 2 2 3 3 3 3
2 2 2 2 2 2 2 2 2 2 2 2 1 1 2 1 2 2 2 2 2 2 2 2 2 1 1 1 2 1 1 1 1 1 1 1 1 2 2 2 3 3 3
2 2 1 2 2 2 2 2 2 2 2 1 1 1 1 1 1 1 1 1 1 1 1 1 1 1 0 1 1 2 2 2 2 2 2 2 2 2 2 2 3 3 3
1 1 1 1 1 2 2 2 2 2 2 2 1 1 2 1 1 1 1 0 0 1 1 1 1 2 1 0 0 1 1 2 2 2 2 3 3 3 2 2 2 3 3
1 1 1 1 1 1 2 2 2 2 2 1 1 1 1 1 1 1 1 0 0 1 1 1 1 1 1 1 0 1 0 1 1 2 2 2 3 3 3 3 2 2 3
1 0 1 0 0 1 1 1 1 1 1 1 1 1 1 1 1 1 1 1 1 0 1 1 1 1 1 0 1 1 1 1 1 2 2 2 3 3 3 2 3 3 3
Wind_Direction
166 164 165 181 186 181 191 206 202 202 199 198 202 204 199 192 191 183 193 194 200 226 232 219 236 226 218 200 163 158 175 166 207 265 262 278 261 255 262 255 242 227 230
173 166 175 176 175 194 211 224 214 205 203 200 198 202 200 195 191 191 204 203 203 215 225 211 234 225 216 207 181 194 200 180 178 229 282 289 260 249 237 246 257 239 234
158 160 171 181 191 217 230 239 225 211 207 203 196 200 203 202 194 198 202 205 209 214 214 212 221 208 225 221 201 202 206 190 167 178 247 261 269 274 292 286 280 282 263
159 163 174 197 211 224 228 234 233 221 213 211 205 201 202 203 197 201 203 204 207 218 219 216 214 206 215 214 209 216 207 191 174 174 222 268 276 285 169 274 305 305 290
163 175 198 209 213 219 231 239 236 226 221 217 208 207 207 201 204 200 201 203 206 221 226 223 220 213 209 207 201 201 192 190 190 196 217 240 279 314 257 254 266 296 293
179 200 204 202 207 217 232 236 239 231 221 213 213 209 214 219 208 203 197 205 208 209 220 229 229 219 223 223 215 205 190 189 200 201 207 214 230 225 219 222 233 302 295
188 207 207 213 219 224 229 231 237 236 224 216 217 211 215 223 215 210 206 199 207 213 214 217 228 224 214 213 226 229 230 225 206 199 211 220 220 215 200 216 217 216 243
186 212 211 215 230 238 226 226 238 238 234 227 222 219 219 230 222 218 211 206 212 222 219 211 212 222 223 206 205 223 243 245 229 220 220 228 224 212 200 208 221 240 267
195 222 225 215 221 237 240 238 236 234 243 237 224 217 220 236 228 219 203 197 218 233 230 221 208 213 227 206 188 209 252 272 259 236 230 235 235 221 201 177 189 199 273
229 228 229 218 218 229 235 238 233 230 237 237 227 216 218 231 227 215 199 189 209 233 237 228 220 219 225 206 195 200 229 251 256 269 269 271 254 237 219 198 192 195 227
248 241 243 232 227 227 228 230 240 243 244 236 232 234 228 224 222 216 194 181 202 215 224 229 240 233 232 222 213 213 227 234 234 236 250 266 274 255 237 221 206 196 207
263 268 265 256 249 251 231 238 238 229 236 241 236 248 242 227 217 221 210 199 193 197 222 228 236 239 237 234 229 233 235 225 214 228 244 252 251 253 251 234 224 221 220
268 275 276 279 268 250 227 234 245 229 217 231 224 231 246 245 233 225 218 209 206 203 225 234 242 246 249 248 242 238 229 209 203 220 236 244 241 243 248 255 254 246 253
243 265 272 279 279 279 255 235 231 234 224 226 219 224 237 240 235 228 220 217 220 221 238 246 246 249 255 252 255 246 225 207 202 218 230 241 247 249 243 235 244 255 272
248 262 271 267 266 270 272 261 246 241 227 219 218 208 209 225 230 215 203 208 208 204 172 149 250 282 285 283 273 259 235 213 216 221 220 233 236 236 244 236 224 219 236
244 258 251 255 268 265 269 308 321 293 273 241 222 212 226 226 215 212 217 213 198 173 152 186 218 228 237 243 245 252 240 225 223 217 212 217 224 229 241 239 221 216 234
228 241 250 253 254 259 251 241 282 321 326 299 260 239 231 229 214 208 205 188 177 160 166 205 217 224 232 235 231 229 235 236 221 209 217 223 224 228 230 239 235 233 241
235 233 240 246 246 246 248 241 232 235 277 307 302 270 238 215 208 201 168 123 140 182 202 206 217 222 224 227 230 234 241 237 220 220 224 229 227 227 232 238 238 236 239
241 244 246 249 249 251 249 241 237 228 232 261 299 321 287 227 208 179 151 163 192 213 226 227 223 222 228 225 225 231 235 235 228 222 231 235 230 223 229 233 234 239 236
247 254 248 243 247 254 248 240 235 223 215 221 235 254 214 104 116 176 187 194 197 211 217 227 231 220 215 219 222 228 242 256 258 243 244 243 234 220 224 233 232 232 235
238 251 251 244 242 238 235 228 218 208 206 215 235 239 189 170 187 198 204 209 207 207 204 203 214 227 220 218 219 231 241 259 265 263 253 244 242 239 233 227 232 237 241
230 240 234 230 232 230 226 218 199 194 202 215 245 250 206 174 181 198 208 212 207 208 199 188 201 212 216 211 199 199 220 254 270 269 271 267 258 253 240 230 231 237 240
231 240 244 242 225 223 222 206 191 186 191 200 212 196 185 202 202 204 216 231 207 191 188 164 165 184 205 224 200 186 202 226 239 233 243 267 272 261 250 247 243 244 246
242 234 233 241 225 210 200 197 194 194 194 186 185 188 192 193 181 173 196 214 175 133 123 147 158 158 155 138 302 237 228 230 236 236 237 247 257 259 251 248 250 252 250
217 218 222 223 208 202 198 197 195 195 186 175 161 140 116 97 79 65 43 44 80 97 104 110 116 130 134 115 22 309 272 225 264 269 261 251 256 256 249 249 249 256 260
176 201 220 210 180 168 166 173 172 158 149 145 135 124 119 109 86 55 44 47 46 69 76 80 78 87 85 73 346 314 315 322 313 298 270 254 254 257 253 250 248 249 251